Location: Winthrop
(48.4780°N, 120.1850°W)
Time: 18:50:01
(UTC-07:00)

CAS-4B - Pass Details

Date: 29 May 2022
Orbit: 523 x 537 km, 43.0° (Epoch: 29 June)

Event Time Altitude Azimuth Distance (km) Brightness Sun altitude
Rises 22:05:11 0° 267° (W) 2,658 ? -9.8°
Reaches altitude 10° 22:08:14 10° 244° (WSW) 1,762 ? -10.1°
Maximum altitude 22:10:29 15° 209° (SSW) 1,485 ? -10.4°
Enters shadow 22:12:39 10° 176° (S) 1,734 ? -10.6°
